Regional Weather Roundup
Issued by NWS Jackson, KY

Home | Current Version | Previous Version | Graphics & Text | Print | Product List | Glossary On
Versions: 1 2 3 4 5 6 7 8 9 10 11 12 13 14 15 16 17 18 19 20 21 22 23 24 25 26 27 28 29 30 31 32 33 34 35 36 37 38 39 40 41 42 43 44 45 46 47 48 49 50
184
ASUS43 KJKL 251510
RWRJKL

EAST KENTUCKY HOURLY WEATHER ROUNDUP
NATIONAL WEATHER SERVICE JACKSON KY
1100 AM EDT WED MAY 25 2016

NOTE: "FAIR" INDICATES FEW OR NO CLOUDS BELOW 12,000 FEET WITH
NO SIGNIFICANT WEATHER AND/OR OBSTRUCTIONS TO VISIBILITY.

* THESE REPORTS ARE NOT UNDER NWS QUALITY CONTROL AND MAY NOT
  REPORT WEATHER SUCH AS PRECIPITATION AND FOG.

KYZ079-080-083-085-087-088-110-112-115-119-120-251600
...EASTERN KENTUCKY...

CITY           SKY/WX    TMP DP  RH WIND       PRES   REMARKS
JACKSON        SUNNY     73  56  54 VRB5      30.21F
LONDON         CLOUDY    72  56  57 SE6       30.21F
SOMERSET*      CLOUDY    68  55  64 S8        30.20F
MONTICELLO*    CLOUDY    72  61  68 E8        30.21F
WILLIAMSBURG*  CLOUDY    64  55  72 SE8       30.22F
MIDDLESBORO*   SUNNY     75  55  50 S7        30.25F
HARLAN APT*      N/A     73  54  49 CALM      30.26S
BLACK MTN*       N/A     66  52  59 SW6         N/A
PIKE CO APT*     N/A     72  58  61 S5        30.23S
BIG SANDY APT* SUNNY     76  58  53 S6        30.22S
MOREHEAD APT*  SUNNY     73  57  56 S8        30.20S
ASHLAND*       SUNNY     73  61  64 SE3       30.16F
$$

KYZ035-036-041-042-044-050-067-078-099-251600
...CENTRAL KENTUCKY...

CITY           SKY/WX    TMP DP  RH WIND       PRES   REMARKS
MT STERLING*   CLOUDY    72  59  64 SW8       30.19R
FLEMING/MASON* CLOUDY    74  58  56 S7        30.18R
DANVILLE*      PTSUNNY   70  59  68 S7        30.18S
RICHMOND*      PTSUNNY   73  57  56 S7        30.18R
LEXINGTON      CLOUDY    74  58  57 S10       30.16S
FRANKFORT      CLOUDY    73  57  57 S5        30.14S
LOUISVILLE     CLOUDY    72  59  63 SE8       30.11S
LEBANON*         N/A     73  59  60 S10       30.16R
GLASGOW*       CLOUDY    73  59  62 S7        30.15S
BOWLING GREEN  CLOUDY    77  62  59 S12       30.14F
$$

KYZ091>093-OHZ055-061-077-WVZ005-015-034-035-042-251600
...SOUTHERN OHIO/WEST VIRGINIA...

CITY           SKY/WX    TMP DP  RH WIND       PRES   REMARKS
COVINGTON      CLOUDY    70  57  63 S6        30.14R
COLUMBUS       MOSUNNY   76  52  43 S13       30.15S
DAYTON         CLOUDY    73  54  51 S13       30.15S
WILMINGTON     CLOUDY    75  56  51 S8        30.15F
HUNTINGTON       N/A     77  56  48 S9        30.18F
CHARLESTON       N/A     76  56  49 VRB3      30.21R
PINEVILLE*       N/A     75  47  36 MISG      30.31R
BECKLEY          N/A     73  44  35 W9        30.28R
BLUEFIELD        N/A     71  49  45 W10       30.31R
LOGAN CO APT*    N/A     73  55  53 CALM      30.24S
$$

VAZ002-007-008-TNZ017-027-036-066-071-251600
...SOUTHWEST VIRGINIA/EAST TENNESSEE...

CITY           SKY/WX    TMP DP  RH WIND       PRES   REMARKS
WISE*            N/A     73  45  35 S6        30.31S
JONESVILLE*      N/A     73  54  49 CALM      30.28F
ABINGDON*        N/A     74  53  48 CALM      30.30R
BRISTOL        MOSUNNY   71  55  56 CALM      30.28R
SEVIERVILLE*   SUNNY     73  55  53 CALM      30.24F
KNOXVILLE      CLOUDY    74  56  53 CALM      30.24S
OAK RIDGE      CLOUDY    70  58  65 CALM      30.26S
CROSSVILLE     CLOUDY    73  58  59 S5        30.26S
NASHVILLE      CLOUDY    74  61  63 CALM      30.17S
$$

...KEY TO REMARKS...
VSB - VISIBILITY IN MILES
WCI - WIND CHILL INDEX
HX  - HEAT INDEX

$$




USA.gov is the U.S. government's official web portal to all federal, state and local government web resources and services.